Regional Weather Roundup
Issued by NWS

Home | Current Version | Previous Version | Graphics & Text | Print | Product List | Glossary On
Versions: 1 2 3 4 5 6 7 8 9 10 11 12 13 14 15 16 17 18 19 20 21 22 23 24 25 26 27 28 29 30 31 32 33 34 35 36 37 38 39 40 41 42 43 44 45 46 47 48 49 50
620
ASUS44 KMEG 280210
RWRTN
TENNESSEE HOURLY STATE WEATHER ROUNDUP
NATIONAL WEATHER SERVICE MEMPHIS TN
800 PM CST MON FEB 27 2017

TNZ002-004-019-021-049-052-054-088>092-280300-
WEST TENNESSEE

CITY           SKY/WX    TMP DP  RH WIND       PRES   REMARKS
MEMPHIS INTL   MOCLDY    59  52  77 SE12      30.10R
NWS MEMPHIS      N/A     58 N/A N/A MISG        N/A
JACKSON        CLEAR     57  49  74 S8        30.12R
UNION CITY     CLEAR     55  43  62 CALM      30.08S
PARIS          CLEAR     54  43  66 S8        30.12R
HUNTINGDON     CLEAR     55  46  71 SE6       30.11R
$$

TNZ008-025-027-028-033-062-065-066-280300-
NORTH MIDDLE TENNESSEE

CITY           SKY/WX    TMP DP  RH WIND       PRES   REMARKS
NASHVILLE      CLEAR     52  44  74 S10       30.18S
PORTLAND       CLEAR     52  45  76 S10       30.17S
CLARKSVILLE    CLEAR     53  42  66 SE8       30.14R
SMYRNA         CLOUDY    51  45  79 SE5       30.19S
COOKEVILLE     CLEAR     50  43  76 S7        30.21R
GALLATIN       MOCLDY    52  45  76 S3        30.21S
CROSSVILLE     CLOUDY    47  41  80 S5        30.24S
$$

TNZ061-075-076-078-094-096-097-280300-
SOUTH MIDDLE TENNESSEE

CITY           SKY/WX    TMP DP  RH WIND       PRES   REMARKS
FAYETTEVILLE   CLEAR     50  48  93 SE6       30.19S
TULLAHOMA      CLEAR     50  45  81 SE6       30.20F
WINCHESTER     CLEAR     50  45  81 SE10      30.21S
MCMINNVILLE    CLEAR     50  45  81 SE3       30.21S
COLUMBIA       CLEAR     52  52 100 SE5       30.15S
SHELBYVILLE    CLEAR     52  48  87 SE6       30.19F
$$

TNZ017-018-042-046-047-280300-
NORTHEAST TENNESSEE

CITY           SKY/WX    TMP DP  RH WIND       PRES   REMARKS
TRI CITIES     CLOUDY    54  34  46 CALM      30.27R
ELIZABETHTON   CLOUDY    54  34  47 CALM      30.27S
$$

TNZ012-013-036-069-073-074-280300-
CENTRAL EAST TENNESSEE

CITY           SKY/WX    TMP DP  RH WIND       PRES   REMARKS
KNOXVILLE      CLOUDY    51  39  63 CALM      30.25S
OAK RIDGE      MOCLDY    50  40  68 CALM      30.27S
DOWNTOWN KNOXV CLOUDY    48  43  81 CALM      30.26F
GATLINBURG     PTCLDY    46  36  66 CALM      30.26R
MORRISTOWN     PTCLDY    48  34  57 CALM      30.25S
JACKSBORO      PTCLDY    46  37  71 NE3       30.27S
$$

TNZ083-085-099-280300-
SOUTHEAST TENNESSEE

CITY           SKY/WX    TMP DP  RH WIND       PRES   REMARKS
CHATTANOOGA    MOCLDY    49  45  86 CALM      30.26S
$$

SKY/WX REPORTED AS FAIR MEANS FEW OR NO CLOUDS BELOW
12 THOUSAND FEET.





USA.gov is the U.S. government's official web portal to all federal, state and local government web resources and services.